Tracking 20942 objects as of 9-Jul-2020
HD Live streaming from Space Station
objects crossing your sky now

NOAA 16 DEB

Track NOAA 16 DEB now!
10-day predictions


NORAD ID: 41129
Int'l Code: 2000-055BL
Perigee: 707.7 km
Apogee: 836.0 km
Inclination: 98.9 °
Period: 100.1 minutes
Semi major axis: 7142 km
RCS: Unknown
Launch date: September 21, 2000
Source: United States (US)
Launch site: AIR FORCE WESTERN TEST RANGE (AFWTR)

Note: This is SATELLITE DEBRIS
aabbcc
Your satellite tracking list
Your tracking list is empty




NASA's NSSDC Master Catalog

Two Line Element Set (TLE):
1 41129U 00055BL  20190.17961738  .00001767  00000-0  57155-3 0  9998
2 41129  98.8824 327.8828 0089790 188.2155 171.7565 14.38121475240553
Source of the keplerian elements: AFSPC